Location: Mat�lon
(46.2791°N, 7.1028°E)
Time: 01:28:14
(UTC+00:00)

Meteor 1-22 Rocket - Pass Details

Date: 18 September 2020
Orbit: 786 x 941 km, 81.2° (Epoch: 31 October)

Event Time Altitude Azimuth Distance (km) Brightness Sun altitude
Exits shadow 20:43:06 67° 257° (WSW) 975 4.5 -30.4°
Maximum altitude 20:43:28 69° 283° (WNW) 965 4.5 -30.5°
Drops below altitude 10° 20:49:30 10° 7° (N) 2,637 7.1 -31.3°
Sets 20:52:03 0° 10° (N) 3,598 7.9 -31.6°
